[[{"header":{"parameterUnit":"m.s-1","parameterCategory":1,"la1":30.2991,"la2":30.254,"lo1":-89.0895,"lo2":-89.0444,"dy":0.0017,"dx":0.0017,"nx":28,"ny":28,"refTime":"2024-07-14T21:00:00:Z","depth":0,"parameterNumber":2,"parameterNumberName":"U-component_of_WINDS"},"data":[0,0,0,0,0,0,0,0,0,0,0,0,0,0,0,0,0,0,0,0,0,0,0,0,0,0,0,0,0,0,0,0,0,0,0,0,0,0,0,0,0,0,0,0,0,0,0,0,0,0,0,0,0,0,0,0,0,0,4.4825,4.4826,0,4.4987,4.4989,4.4991,4.496,4.4957,4.4954,4.4951,4.5118,4.5125,4.5132,0,0,0,0,0,0,0,0,0,0,0,0,0,4.4485,4.4492,4.4824,4.4826,4.4828,4.4987,4.4989,4.4991,4.4961,4.4957,4.4953,4.495,4.5116,4.5124,4.5133,0,0,0,0,0,0,0,0,0,0,0,0,0,4.4639,4.4494,4.4824,4.4832,4.4834,4.4986,4.4989,4.4992,4.4961,4.4957,4.4953,4.4948,4.5113,4.5124,4.5134,4.5288,0,0,4.5167,4.5172,0,0,0,0,0,0,0,0,4.463,4.4651,4.4829,4.4832,4.4835,4.4949,4.4931,4.5091,4.4962,4.4913,4.4951,4.4946,4.5066,4.508,4.512,4.5296,4.5303,4.5168,4.5175,4.5179,4.5182,0,0,0,0,0,0,0,4.462,4.4644,4.4889,4.4832,4.4835,4.4827,4.4844,4.4961,4.5012,4.4917,4.4915,4.4935,4.5066,4.511,4.5124,4.5306,4.5168,4.5177,4.5184,4.5188,4.5613,4.5618,0,0,0,0,0,0,4.4606,4.4635,4.4884,4.4894,4.472,4.4837,4.4856,4.4917,4.5011,4.5021,4.4939,4.4933,4.5094,4.5111,4.513,4.5314,4.5179,4.5189,4.5195,4.5609,4.5614,4.562,0,0,0,0,0,0,4.4599,4.4629,4.4877,4.4764,4.4795,4.4847,4.4916,4.4922,4.4966,4.5027,4.5036,4.4974,4.5091,4.5114,4.5248,4.5319,4.5194,4.5204,4.5603,4.561,4.5617,4.5685,0,0,0,0,0,0,4.459,4.4626,4.4686,4.4766,4.4801,4.4994,4.492,4.4929,4.4984,4.4978,4.5062,4.5072,4.5089,4.5232,4.5259,4.5332,4.5212,4.5597,4.5606,4.5615,4.5676,4.5693,4.5708,0,0,0,0,0,4.4578,4.4699,4.4689,4.4719,4.4877,4.4998,4.5018,4.5036,4.499,4.505,4.5089,4.5069,4.5308,4.5246,4.5276,4.5353,4.5592,4.5603,4.5614,4.5669,4.569,4.5707,0,0,0,0,0,0,4.4627,4.471,4.47,4.4851,4.4917,4.4992,4.5068,4.5058,4.5139,4.513,4.5148,4.5167,4.5303,4.5342,4.5272,4.5506,4.5443,4.5461,4.5475,4.5495,4.5511,4.5498,4.5221,0,0,0,0,0,4.4655,4.4747,4.4815,4.4941,4.4975,4.5016,4.507,4.5077,4.5147,4.5175,4.5224,4.5292,4.5382,4.5441,4.5528,4.5682,4.5699,4.575,4.5765,4.5778,4.5792,4.5874,4.5896,4.5655,4.5655,4.5655,0,0,4.4715,4.4772,4.4828,4.4952,4.5005,4.5098,4.504,4.5142,4.5211,4.5191,4.5319,4.5358,4.5435,4.5579,4.5645,4.5616,4.5862,4.5792,4.5801,4.5809,4.5887,4.591,4.593,4.5663,4.5662,4.566,0,0,4.4871,4.4924,4.5034,4.5087,4.5167,4.5194,4.522,4.5297,4.5321,4.5451,4.5436,4.5519,4.5674,4.5729,4.5777,4.5952,4.5936,4.598,4.6062,4.6141,4.616,4.6177,4.6237,4.6258,4.5994,4.5995,4.5995,0,4.4935,4.5075,4.5092,4.5195,4.5249,4.5234,4.5344,4.5396,4.55,4.5537,4.5503,4.5696,4.5747,4.5902,4.5945,4.5986,4.6015,4.597,4.6156,4.6173,4.6189,4.6246,4.6269,4.5999,4.5999,4.5998,4.5998,0,4.5148,4.5246,4.5325,4.5425,4.5488,4.5595,4.5627,4.5689,4.569,4.572,4.5851,4.5912,4.6009,4.6047,4.6051,4.6202,4.6181,4.6152,4.6089,4.6216,4.627,4.6292,4.6006,4.6004,4.6003,4.6002,0,0,4.534,4.5446,4.5475,4.5519,4.5605,4.5681,4.5786,4.588,4.5932,4.6005,4.6091,4.6223,4.6195,4.625,4.6259,4.6329,4.646,4.6291,4.6293,4.6318,4.6628,4.6648,4.6673,4.6451,4.6456,4.6459,4.6621,0,4.5501,4.5686,4.5703,4.5869,4.5958,4.5944,4.6035,4.6098,4.6128,4.6208,4.6241,4.6332,4.6291,4.6323,4.6392,4.643,4.6523,4.6419,4.6531,4.6534,4.6509,4.6702,4.6724,4.6873,4.6642,4.6646,4.6649,0,4.5715,4.5792,4.5966,4.6037,4.6075,4.6157,4.6244,4.6321,4.639,4.6407,4.6468,4.6467,4.6574,4.6509,4.6655,4.6584,4.6631,4.6656,4.6663,4.6672,4.6597,4.6714,4.6922,4.6943,4.6682,4.668,4.6677,0,4.5833,4.5981,4.6103,4.6142,4.6229,4.6286,4.6326,4.6391,4.6446,4.6522,4.6557,4.6646,4.6693,4.6761,4.6783,4.6734,4.6928,4.6865,4.6943,4.6943,4.6983,4.698,4.7199,4.7018,4.7017,4.7017,4.7016,0,4.6011,4.6117,4.6157,4.6232,4.635,4.6369,4.6485,4.6521,4.6579,4.666,4.6655,4.6731,4.6758,4.6838,4.6857,4.6974,4.6996,4.7011,4.7015,4.7011,4.7008,4.704,4.7029,4.7023,4.7022,4.702,4.7019,0,4.6162,4.6194,4.6326,4.6397,4.6418,4.6501,4.6562,4.6634,4.6662,4.6765,4.679,4.6835,4.6929,4.6959,4.7073,4.7085,4.7221,4.7216,4.7197,4.7196,4.7271,4.7263,4.7517,4.755,4.7349,4.7351,4.7353,0,4.6272,4.6353,4.6433,4.6486,4.6527,4.6614,4.667,4.6691,4.6749,4.6833,4.6895,4.6987,4.7063,4.7213,4.7256,4.7342,4.7338,4.7421,4.7351,4.7343,4.7336,4.733,4.7337,4.7434,4.7436,4.7437,4.7439,0,4.6463,4.6474,4.6554,4.6639,4.6705,4.6774,4.684,4.6884,4.6915,4.698,4.7075,4.7134,4.7249,4.734,4.7428,4.7468,4.7458,4.7461,4.7483,4.7478,4.7462,4.7469,4.7229,4.7454,4.7453,4.7452,4.7451,4.745,4.6595,4.6665,4.6732,4.682,4.6872,4.6933,4.7003,4.704,4.712,4.7215,4.7223,4.7325,4.7391,4.7508,4.7552,4.7632,4.7608,4.7641,4.7648,4.7656,4.766,4.7451,4.7648,4.7648,4.7647,4.7647,4.7647,0,4.6783,4.6825,4.6906,4.6997,4.7067,4.7052,4.7123,4.7182,4.7272,4.7335,4.7408,4.7517,4.7605,4.7654,4.7742,4.7796,4.7794,4.7819,4.7813,4.7822,4.7678,4.7648,4.7819,4.7819,4.7819,4.7819,4.7819,4.7819,4.6889,4.7006,4.7025,4.7166,4.7207,4.7307,4.7349,4.7405,4.7454,4.7575,4.7648,4.7679,4.7736,4.7828,4.7907,4.7919,4.7951,4.7978,4.7987,4.785,4.7833,4.7816,4.7788,4.7985,4.7985,4.8124,4.8125,4.8126]},{"header":{"parameterUnit":"m.s-1","parameterCategory":1,"la1":30.2991,"la2":30.254,"lo1":-89.0895,"lo2":-89.0444,"dy":0.0017,"dx":0.0017,"nx":28,"ny":28,"refTime":"2024-07-14T21:00:00:Z","depth":0,"parameterNumber":3,"parameterNumberName":"V-component_of_WINDS"},"data":[0,0,0,0,0,0,0,0,0,0,0,0,0,0,0,0,0,0,0,0,0,0,0,0,0,0,0,0,0,0,0,0,0,0,0,0,0,0,0,0,0,0,0,0,0,0,0,0,0,0,0,0,0,0,0,0,0,0,2.3646,2.3646,0,2.368,2.3681,2.3681,2.3637,2.3635,2.3634,2.3632,2.3667,2.3669,2.3672,0,0,0,0,0,0,0,0,0,0,0,0,0,2.354,2.3542,2.3646,2.3646,2.3647,2.368,2.3681,2.3681,2.3637,2.3635,2.3633,2.3632,2.3666,2.3669,2.3672,0,0,0,0,0,0,0,0,0,0,0,0,0,2.3581,2.3543,2.3646,2.3629,2.3628,2.368,2.3681,2.3681,2.3638,2.3635,2.3633,2.3631,2.3665,2.3669,2.3672,2.3743,0,0,2.3683,2.3685,0,0,0,0,0,0,0,0,2.3579,2.3585,2.3631,2.363,2.3629,2.3652,2.3656,2.3702,2.3638,2.3634,2.3632,2.363,2.3664,2.3667,2.3679,2.3745,2.3746,2.3684,2.3686,2.3688,2.3689,0,0,0,0,0,0,0,2.3576,2.3584,2.3659,2.3631,2.363,2.3619,2.3622,2.3665,2.3662,2.3634,2.3631,2.3636,2.3663,2.3676,2.368,2.3747,2.3684,2.3687,2.3689,2.3691,2.3871,2.3873,0,0,0,0,0,0,2.3576,2.3582,2.3658,2.366,2.3598,2.3623,2.3626,2.3647,2.3661,2.3661,2.3638,2.3634,2.3671,2.3676,2.3681,2.3764,2.3688,2.3691,2.3693,2.3868,2.3871,2.3874,0,0,0,0,0,0,2.3573,2.3583,2.3657,2.362,2.3629,2.3627,2.3651,2.3649,2.3662,2.3664,2.3663,2.3652,2.3669,2.3676,2.3728,2.3765,2.3693,2.3696,2.3865,2.3869,2.3873,2.3931,0,0,0,0,0,0,2.3571,2.3582,2.361,2.3621,2.3631,2.3704,2.3653,2.3651,2.3668,2.3663,2.3677,2.3677,2.3668,2.3723,2.3731,2.3768,2.3699,2.3862,2.3867,2.3871,2.3926,2.3937,2.3946,0,0,0,0,0,2.3567,2.3625,2.3611,2.3621,2.3665,2.3706,2.3712,2.37,2.3671,2.3699,2.37,2.3676,2.3759,2.3728,2.3738,2.3776,2.3859,2.3865,2.3871,2.3922,2.3935,2.3946,0,0,0,0,0,0,2.3618,2.3626,2.3611,2.3674,2.369,2.3699,2.3732,2.3714,2.3738,2.3732,2.3717,2.372,2.3776,2.3781,2.3747,2.3845,2.3804,2.3812,2.384,2.3852,2.3862,2.3859,2.3702,0,0,0,0,0,2.3636,2.3669,2.3675,2.373,2.3738,2.3734,2.3752,2.3741,2.3757,2.3763,2.3768,2.3784,2.3813,2.3833,2.386,2.3926,2.3928,2.3957,2.3967,2.3975,2.3983,2.4018,2.403,2.3893,2.3893,2.3893,0,0,2.3675,2.3683,2.3705,2.374,2.3751,2.3785,2.374,2.3778,2.3803,2.3769,2.3818,2.3823,2.3839,2.3898,2.3925,2.3904,2.4021,2.3983,2.3989,2.3992,2.4025,2.4038,2.4049,2.3897,2.3896,2.3896,0,0,2.3763,2.3773,2.382,2.3831,2.3848,2.3845,2.3856,2.3867,2.3869,2.3918,2.3893,2.3922,2.3973,2.3986,2.3999,2.409,2.4069,2.4099,2.4151,2.4185,2.4196,2.4206,2.4238,2.425,2.4106,2.4107,2.4107,0,2.3808,2.3859,2.3846,2.3886,2.3902,2.3872,2.3919,2.3931,2.3956,2.3967,2.3944,2.4007,2.4016,2.4077,2.41,2.4111,2.4123,2.4098,2.4196,2.4205,2.4214,2.4244,2.4257,2.411,2.411,2.4109,2.4109,0,2.3915,2.395,2.3986,2.4011,2.403,2.4074,2.4066,2.4088,2.4076,2.4075,2.4125,2.4134,2.4162,2.4176,2.4165,2.4236,2.4223,2.4198,2.4157,2.4231,2.4259,2.4271,2.4115,2.4114,2.4113,2.4112,0,0,2.4036,2.4052,2.4066,2.4076,2.4092,2.4119,2.4161,2.4189,2.4207,2.4225,2.4259,2.4303,2.4279,2.4294,2.4284,2.4314,2.4385,2.4285,2.4285,2.4303,2.4464,2.4483,2.4497,2.4371,2.4373,2.4375,2.4463,0,2.4124,2.4196,2.4185,2.4254,2.4287,2.4258,2.4294,2.4308,2.4308,2.4335,2.4334,2.4365,2.4333,2.4341,2.437,2.4371,2.4417,2.4364,2.4403,2.4404,2.44,2.4512,2.4532,2.4614,2.4474,2.4476,2.4477,0,2.4236,2.4258,2.4331,2.4341,2.4354,2.4387,2.4411,2.4437,2.4452,2.4449,2.4466,2.4449,2.449,2.4448,2.4504,2.4468,2.4483,2.4486,2.4488,2.4492,2.4445,2.4518,2.4639,2.4652,2.4494,2.4493,2.4492,0,2.4317,2.4364,2.4414,2.4424,2.4438,2.4461,2.4468,2.448,2.4497,2.4518,2.4529,2.4554,2.4568,2.4588,2.4578,2.4549,2.4636,2.4593,2.4634,2.4635,2.4654,2.4653,2.478,2.4664,2.4664,2.4664,2.4663,0,2.4416,2.4461,2.445,2.4481,2.4531,2.4517,2.4567,2.457,2.4581,2.4611,2.4588,2.4617,2.4603,2.4631,2.4624,2.467,2.4677,2.4676,2.4674,2.4678,2.4678,2.4688,2.4682,2.4667,2.4666,2.4665,2.4665,0,2.4515,2.4509,2.4561,2.457,2.4573,2.4609,2.4616,2.4645,2.4642,2.4681,2.4689,2.4686,2.4717,2.471,2.4744,2.4739,2.4798,2.4788,2.4793,2.4791,2.4833,2.4829,2.4971,2.4988,2.4861,2.4862,2.4863,0,2.4578,2.4613,2.4625,2.4643,2.4652,2.4682,2.47,2.4687,2.4706,2.4724,2.475,2.478,2.4802,2.4854,2.4854,2.488,2.487,2.4918,2.4874,2.4878,2.4871,2.4869,2.4872,2.4927,2.4929,2.493,2.4931,0,2.4691,2.4687,2.4713,2.4738,2.476,2.4779,2.4796,2.4812,2.4801,2.4823,2.4855,2.4873,2.4907,2.4937,2.496,2.4966,2.4947,2.4944,2.4955,2.4961,2.4962,2.4962,2.4817,2.4941,2.494,2.494,2.4939,2.4938,2.4774,2.4804,2.4816,2.4846,2.4857,2.4874,2.4901,2.4902,2.4928,2.4956,2.4946,2.4983,2.4995,2.5025,2.5034,2.5062,2.5044,2.506,2.5064,2.5068,2.5073,2.4958,2.5066,2.5066,2.5065,2.5065,2.5065,0,2.4886,2.4893,2.4921,2.4945,2.4968,2.4948,2.4965,2.4986,2.5018,2.5032,2.5054,2.5091,2.5119,2.5121,2.5147,2.5169,2.5161,2.5176,2.5175,2.5176,2.5088,2.5076,2.5183,2.5183,2.5183,2.5183,2.5182,2.5182,2.4947,2.4995,2.4992,2.5046,2.5052,2.5087,2.5099,2.5114,2.5124,2.5166,2.5189,2.5191,2.52,2.5226,2.5251,2.525,2.5261,2.528,2.5277,2.5194,2.5182,2.5171,2.516,2.5283,2.5283,2.5363,2.5364,2.5364]}]]